カタログに戻る

STARLINK-2647

運用中通信VLEO
NORAD 48658·PAYLOAD·🇺🇸 United States

打ち上げ May 26, 2021 から Cape Canaveral Space Force Station

Loading…

次のパス (今後24時間)

TLE

最新Source: CelesTrak SupGP

元期: Sep 14, 2026, 20:50 UTC

1 48658C 21044W   26257.86854167 -.00019259  00000+0 -61922-3 0  2576
2 48658  53.1578 314.0835 0001351  90.5190 347.6017 15.31716251    11

AllMySatでSTARLINK-2647をリアルタイム追跡

Download on the App Store